P/2019 X1 ( Pruyne )

Japanese version
Home page
Updated on June 13, 2020

---------------------------------------------------------------------

* Profile

Discovery Date December 2, 2019
Magnitude 19.4 mag
Discoverer Theodore A. Pruyne (Mt. Lemmon Survey)

* Pictures

* Orbital Elements

Epoch 2019 July 16.0 TT = JDT 2458680.5
T 2019 July 22.33600 TT                                 Rudenko
q   4.3055217            (2000.0)            P               Q
n   0.06424975     Peri.   36.92062     +0.16912810     -0.97789452
a   6.1738361      Node    43.72698     +0.85643054     +0.08407525
e   0.3026181      Incl.   10.24634     +0.48777292     +0.19145145
P  15.3
From 117 observations 2003 Nov. 21-2020 May 5, mean residual 0".5.

* Magnitudes Graph

        m1 = 10.0 + 5 log d + 10.0 log r

---------------------------------------------------------------------

The orbital elements are published on M.P.E.C. 2020-K117.
The magnitudes graphs are made with Comet for Windows.

---------------------------------------------------------------------

Copyright(C) Seiichi Yoshida (comet@aerith.net). All rights reserved.